FW1418 Weather Reports


Display with metric or nautical units.
time (UTC)temp
F
wind
direction
speed
MPH
gust
MPH
rain 1hr
in
rain 24hr
in
rain mn
in
humidity
%
barometer
mb
20260902230040 76 109 1.0 3.0 0.00 0.10 0.10 76 1012.4
20260902224549 75 109 0.0 1.0 0.00 0.10 0.10 82 1012.5
20260902223039 75 109 0.0 2.0 0.00 0.10 0.10 85 1012.4
20260902221547 73 109 0.0 4.0 0.00 0.10 0.10 86 1012.5
20260902220039 73 109 1.0 6.0 0.00 0.10 0.10 86 1012.4
20260902214539 74 97 3.0 6.0 0.00 0.10 0.10 85 1012.3
20260902213041 73 99 1.0 8.0 0.00 0.10 0.10 86 1012.4
20260902211546 74 121 2.0 8.0 0.00 0.10 0.10 84 1012.3
20260902210036 74 98 2.0 7.0 0.00 0.10 0.10 84 1012.6
20260902204536 73 86 5.0 8.0 0.00 0.10 0.10 81 1012.5
20260902203035 74 91 2.0 7.0 0.00 0.10 0.10 83 1012.4
20260902201538 73 109 4.0 8.0 0.00 0.10 0.10 83 1012.6
20260902200036 73 112 3.0 8.0 0.00 0.10 0.10 86 1012.8
20260902194537 73 126 4.0 11.0 0.00 0.10 0.10 87 1012.8
20260902193033 74 142 2.0 8.0 0.00 0.10 0.10 85 1012.7
20260902191536 75 130 4.0 7.0 0.00 0.10 0.10 80 1012.9
20260902190032 75 105 1.0 7.0 0.00 0.10 0.10 81 1013.1
20260902184531 76 144 2.0 7.0 0.00 0.10 0.10 79 1013.1
20260902183031 75 135 2.0 7.0 0.00 0.10 0.10 79 1013.1
20260902181530 74 108 3.0 8.0 0.00 0.10 0.10 80 1013.1
20260902180029 74 119 3.0 6.0 0.00 0.10 0.10 84 1013.1
20260902174530 74 113 2.0 4.0 0.00 0.10 0.10 82 1013.3
20260902173029 74 130 2.0 5.0 0.00 0.10 0.10 80 1013.3
20260902171528 74 145 3.0 5.0 0.00 0.10 0.10 81 1013.4
20260902170027 76 194 1.0 2.0 0.00 0.10 0.10 79 1013.3
20260902164529 74 195 1.0 2.0 0.00 0.10 0.10 84 1012.9
20260902163025 72 195 0.0 4.0 0.00 0.10 0.10 85 1012.9
20260902161527 71 246 0.0 6.0 0.00 0.10 0.10 88 1012.8
20260902160023 70 279 1.0 4.0 0.00 0.10 0.10 91 1013.3
20260902154529 70 286 0.0 7.0 0.00 0.10 0.10 92 1013.5
20260902153023 70 229 0.0 3.0 0.00 0.10 0.10 92 1013.4
20260902151521 69 355 1.0 4.0 0.00 0.10 0.10 93 1013.2
20260902150021 68 324 2.0 10.0 0.00 0.10 0.10 95 1013.5
20260902144530 68 5 3.0 8.0 0.00 0.10 0.10 96 1013.6
20260902143020 67 15 3.0 9.0 0.00 0.10 0.10 97 1013.8
20260902141524 67 271 1.0 3.0 0.01 0.10 0.10 98 1012.7
20260902140020 66 255 1.0 3.0 0.01 0.10 0.10 99 1012.2
20260902134532 65 249 2.0 4.0 0.02 0.10 0.10 98 1012.6
20260902133022 65 249 2.0 5.0 0.06 0.10 0.10 98 1012.4
20260902131517 65 312 0.0 3.0 0.08 0.09 0.09 96 1012.7
20260902130015 65 310 3.0 8.0 0.09 0.09 0.09 94 1013.5
20260902124512 67 95 3.0 7.0 0.08 0.08 0.08 94 1011.4
20260902123010 69 220 1.0 3.0 0.04 0.04 0.04 93 1015.0
20260902121509 70 281 4.0 10.0 0.01 0.01 0.01 94 1016.2
20260902120006 70 279 5.0 13.0 0.00 0.00 0.00 95 1015.9
20260902114504 70 15 3.0 8.0 0.00 0.00 0.00 95 1014.1
20260902113110 69 10 4.0 8.0 0.00 0.00 0.00 96 1013.3
20260902111558 68 360 4.0 5.0 0.00 0.00 0.00 96 1012.8
20260902110057 68 355 1.0 3.0 0.00 0.00 0.00 97 1012.7
20260902104557 68 355 3.0 4.0 0.00 0.00 0.00 98 1012.6
20260902103053 68 269 1.0 3.0 0.00 0.00 0.00 99 1012.0
20260902101600 68 269 0.0 4.0 0.00 0.00 0.00 99 1011.7
20260902100107 69 277 0.0 0.0 0.00 0.00 0.00 98 1011.9
20260902094550 69 277 0.0 2.0 0.00 0.00 0.00 98 1012.2
20260902093050 70 277 0.0 2.0 0.00 0.00 0.00 97 1012.4
20260902091546 70 277 1.0 3.0 0.00 0.00 0.00 97 1012.4
20260902090044 71 272 1.0 3.0 0.00 0.00 0.00 96 1012.3
20260902084551 71 272 0.0 2.0 0.00 0.00 0.00 95 1012.1
20260902083043 72 273 1.0 2.0 0.00 0.00 0.00 94 1011.8
20260902081537 73 301 0.0 3.0 0.00 0.00 0.00 94 1011.6
20260902080035 73 323 2.0 9.0 0.00 0.00 0.00 93 1011.6
20260902074533 74 342 3.0 9.0 0.00 0.00 0.00 92 1011.7
20260902073038 75 5 4.0 11.0 0.00 0.00 0.00 91 1011.7
20260902071532 76 311 2.0 9.0 0.00 0.00 0.00 91 1011.7
20260902070031 76 11 3.0 7.0 0.00 0.00 0.00 92 1011.9
20260902064530 75 269 0.0 5.0 0.00 0.00 0.00 94 1011.9
20260902063027 74 265 1.0 7.0 0.00 0.00 0.00 97 1011.8
20260902061525 74 281 0.0 2.0 0.00 0.00 0.00 98 1011.5
20260902060025 75 281 0.0 2.0 0.00 0.00 0.00 98 1011.2
20260902054522 75 281 0.0 4.0 0.00 0.00 0.00 98 1011.3
20260902053020 75 275 1.0 6.0 0.00 0.00 0.00 98 1011.4
20260902051519 75 268 2.0 7.0 0.00 0.00 0.00 98 1011.2
20260902050019 76 259 1.0 5.0 0.00 0.00 0.00 97 1011.2
20260902044517 76 275 1.0 5.0 0.00 0.00 0.00 97 1011.3
20260902043014 76 254 3.0 8.0 0.00 0.00 0.00 96 1011.5
20260902041512 76 269 2.0 5.0 0.00 0.00 0.00 96 1011.3
20260902040011 76 263 2.0 5.0 0.00 0.00 0.00 96 1011.3
20260902034511 76 259 1.0 7.0 0.00 0.00 0.00 96 1011.4
20260902033010 77 277 2.0 6.0 0.00 0.00 0.00 95 1011.4
20260902031509 77 287 1.0 4.0 0.00 0.00 0.00 95 1011.4
20260902030011 76 307 2.0 4.0 0.00 0.00 0.00 95 1011.5
20260902024509 77 313 2.0 6.0 0.00 0.00 0.00 95 1011.6
20260902023009 77 315 2.0 7.0 0.00 0.00 0.00 95 1011.8
20260902021507 77 360 3.0 8.0 0.00 0.00 0.00 94 1011.7
20260902020009 77 284 3.0 10.0 0.00 0.00 0.00 94 1011.7
20260902014522 77 287 3.0 8.0 0.00 0.00 0.00 94 1011.5
20260902013007 78 241 3.0 8.0 0.00 0.00 0.00 93 1011.3
20260902011513 78 332 3.0 8.0 0.00 0.00 0.00 92 1011.3
20260902010006 79 330 3.0 10.0 0.00 0.00 0.00 91 1011.3
20260902004506 79 296 4.0 10.0 0.00 0.00 0.00 91 1011.3
20260902003005 80 300 2.0 5.0 0.00 0.00 0.00 90 1011.3
20260902001504 80 268 2.0 6.0 0.00 0.00 0.00 89 1011.3
20260902000004 80 237 2.0 7.0 0.00 0.00 0.00 88 1011.3
20260901234503 80 298 0.0 0.0 0.00 0.00 0.00 86 1011.3
20260901233004 81 298 0.0 2.0 0.00 0.00 0.00 84 1011.3
20260901231503 83 298 0.0 2.0 0.00 0.00 0.00 81 1011.4